Regional Weather Roundup
Issued by NWS Upton, NY

Current Version | Previous Version | Text Only | Print | Product List | Glossary Off
Versions: 1 2 3 4 5 6 7 8 9 10 11 12 13 14 15 16 17 18 19 20 21 22 23 24 25 26 27 28 29 30 31 32 33 34 35 36 37 38 39 40 41 42 43 44 45 46 47 48 49 50
000 ASUS41 KOKX 050518 RWROKX REGIONAL WEATHER ROUNDUP NATIONAL WEATHER SERVICE NEW YORK NY 100 AM EDT SUN JUL 05 2015 NOTE: "FAIR" INDICATES FEW OR NO CLOUDS BELOW 12,000 FEET WITH NO SIGNIFICANT WEATHER AND/OR OBSTRUCTIONS TO VISIBILITY. NYZ071-072-176-178-NJZ106-104-050600- NEW YORK CITY METRO AREA CITY SKY/WX TMP DP RH WIND PRES REMARKS CENTRAL PARK PTCLDY 69 58 67 CALM 30.06R LAGUARDIA APRT MOCLDY 71 60 68 SW5 30.03R KENNEDY INTL MOCLDY 68 59 73 SW3 30.04R NEWARK/LIBERTY MOCLDY 72 57 59 SW3 30.03R BRNX BOT. GARD N/A 64 59 82 E1 30.04S TETERBORO PTCLDY 69 59 70 CALM 30.02R $$ NYZ177-179-078>081-050600- LONG ISLAND NEW YORK CITY SKY/WX TMP DP RH WIND PRES REMARKS FARMINGDALE CLOUDY 67 54 63 CALM 30.04R ISLIP CLOUDY 65 55 70 CALM 30.02R SHIRLEY CLOUDY 62 56 80 CALM 30.04R HAZE WESTHAMPTON PTCLDY 56 53 90 CALM 30.05R MONTAUK POINT N/A 60 56 86 CALM 30.03R $$ NYZ052-065-067-050600- HUDSON VALLEY CITY SKY/WX TMP DP RH WIND PRES REMARKS WHITE PLAINS CLEAR 63 59 87 NW3 30.04R NEWBURGH PTCLDY 61 61 100 CALM 30.05R MONTGOMERY CLEAR 57 56 96 CALM 30.05R FOG POUGHKEEPSIE FOG 59 57 93 CALM 30.03R VSB 1 ALBANY PTCLDY 60 58 92 CALM 30.03R FOG $$ NJZ001-105-106-008-010-013-015-019>022-104-050600- NEW JERSEY CITY SKY/WX TMP DP RH WIND PRES REMARKS NEWARK/LIBERTY MOCLDY 72 57 59 SW3 30.03R TETERBORO PTCLDY 69 59 70 CALM 30.02R CALDWELL PTCLDY 63 59 87 CALM 30.05R MORRISTOWN CLOUDY 66 63 88 CALM 30.05R SOMERVILLE CLOUDY 67 61 81 CALM 30.03R SUSSEX CLOUDY 62 60 93 CALM 30.06R ANDOVER N/A 61 60 97 CALM 30.07R TRENTON CLOUDY 68 59 73 NW3 30.04R MILLVILLE CLOUDY 69 60 73 CALM 30.04R ATLANTIC CITY CLOUDY 67 62 84 CALM 30.04R WRIGHTSTOWN CLOUDY 67 60 76 N3 30.03R TOMS RIVER CLOUDY 68 61 77 CALM 30.05R BELMAR CLOUDY 66 57 72 W3 30.05R $$ PAZ047>061-062-071-050600- EASTERN PENNSYLVANIA CITY SKY/WX TMP DP RH WIND PRES REMARKS PHILADELPHIA CLOUDY 71 57 61 CALM 30.05R ALLENTOWN CLOUDY 67 64 90 CALM 30.06R FOG SCRANTON CLOUDY 62 59 90 SE3 30.07R FOG $$ CTZ002-004>006-009-010-012-RIZ004-006-007-MAZ004-011-015-050600- SOUTHERN NEW ENGLAND IN CT CITY SKY/WX TMP DP RH WIND PRES REMARKS BRADLEY INTL CLEAR 59 56 89 W3 30.01S HARTFORD CLEAR 60 59 96 SE5 30.02R DANBURY CLEAR 57 53 86 SW3 30.05R WTRBRY/OXFORD MOCLDY 61 54 77 CALM 30.05S BRIDGEPORT PTCLDY 65 59 81 CALM 30.03R HAZE MERIDEN CLEAR 59 56 89 CALM 30.03R FOG NEW HAVEN CLEAR 59 54 83 CALM 30.03S HAZE CHESTER FAIR 61 57 88 CALM 30.04R GROTON PTCLDY 60 58 92 CALM 30.01R FOG WILLIMANTIC MOCLDY 60 57 89 CALM 30.03R IN RI CITY SKY/WX TMP DP RH WIND PRES REMARKS PROVIDENCE CLEAR 62 59 90 W3 30.01S FOG BLOCK ISLAND PTCLDY 63 54 72 W6 30.01R WESTERLY CLEAR 59 56 89 CALM 30.02R FOG IN MA CITY SKY/WX TMP DP RH WIND PRES REMARKS BOSTON PTCLDY 62 57 83 CALM 30.00R WORCESTER CLEAR 58 54 86 W8 30.02S WESTFIELD FOG 56 55 97 CALM 30.02S VSB 1/4 PROVINCETOWN CLEAR 52 -2 11 CALM 30.00S NANTUCKET CLEAR 59 56 89 N5 29.99R $$ ANZ330-335-338-340-345-350-353-355-050600- COASTAL MARINE OBSERVATIONS STATION/POSITION TIME SKY/WX TEMP WIND PRES VSBY WAVE AIR SEA DIR/SP/G HT/PER (UTC) (F) (DEG/KT/KT) (MB) (MI) (FT/S) NY HARB ENTRANCE 0450 69 69 240/ 2/ 4 1016.7 3/ 7 4S FIRE IS 0403 70 N/A 3/ 5 20S FIRE ISLAND 0450 69 69 170/ 4/ 4 1016.7 3/ 8 GREAT SOUTH BAY 0400 70 75 180/ 4/ 4 N/A 23SW MTP 0450 68 68 290/ 4/ 4 1016.3 3/ 9 HUDSON CANYON NOT AVBL KINGS POINT 0400 68 66 160/ 3/ 4 1015.8 CENTRAL LI SOUND NOT AVBL EASTERN LI SOUND 0400 64 63 310/ 2/ 4 N/A ROBBINS REEF 0400 72 320/ 8/ 9 1015.5 $$ >>>>>>>>>>>>>>>>>>>>>>>>>>>> KEY <<<<<<<<<<<<<<<<<<<<<<<<<<< > < > SKY/WX - SKY CONDITION/PRESENT WEATHER < > TMP - TEMPERATURE IN FAHRENHEIT < > DP - DEWPOINT IN FAHRENHEIT < > RH - RELATIVE HUMIDITY IN PERCENT < > WIND - DIRECTION AND SPEED IN MPH < > PRES - MEAN SEA LEVEL PRESSURE IN INCHES OF HG < > WCI - WIND CHILL INDEX < > VSB - VISIBILITY IN MILES < > HX - HEAT INDEX < > TC - TEMPERATURE IN CELSIUS < > VRB - VARIABLE WIND DIRECTION < > < >>>>>>>>>>>>>>>>>>>>>>>>>>>> KEY <<<<<<<<<<<<<<<<<<<<<<<<<<<

USA.gov is the U.S. government's official web portal to all federal, state and local government web resources and services.